User: anonymous   Login
Location: Unspecified
(0.0000°N, 0.0000°E)
Time: 05:58:40
(UTC+02:00)
Language:

Meteor 1-31 Rocket - Orbit

View from above orbital plane
View from above orbital plane
View from above satellite
View from above satellite

Ground track
Ground track

The orbit data is extracted from the following two-line orbital elements,

1 12586U 81065B   16148.18517299  .00000693  00000-0  46995-4 0  9999
2 12586  97.4566 133.2898 0021102  86.9442 273.4201 15.09444916898269
Epoch (UTC): 27 May 2016 04:26:38
Eccentricity: 0.0021102
inclination: 97.4566°
perigee height: 523 km
apogee height: 552 km
right ascension of ascending node: 133.2898°
argument of perigee: 86.9442°
revolutions per day: 15.09444916
mean anomaly at epoch: 273.4201°
orbit number at epoch: 89826

The dashed part of the orbit path shows where the satellite is in the earth's shadow,  

DLR